{"data":{"norad_id":51644,"epoch":"2026-09-20T04:52:46.305408Z","epoch_age_seconds":52705,"freshness":"FRESH","line1":"1 51644U 22012Y   26263.20331372  .00000005  00000+0 -21031-4 0  9993","line2":"2 51644  87.9192 347.0105 0002279 103.0478 257.0908 13.17647933226185","mean_motion":13.17647933,"eccentricity":0.0002279,"inclination_deg":87.9192,"raan_deg":347.0105,"arg_perigee_deg":103.0478,"mean_anomaly_deg":257.0908,"bstar":-2.1031e-5,"rev_number":22618,"period_min":109.28564178152,"perigee_km":1191.991721927,"apogee_km":1195.4429731386,"semimajor_km":7571.8543475328,"source":"CELESTRAK","updated_at":"2026-09-20T09:00:44.712361Z"}}